Time,B instrument,Bx,By,Bz,sigma B,Ion instrument,Status,Tp_par,Tp_perp,carrot,r_sun,clat,clong,earth_he_angle,n_p,vp_x,vp_y,vp_z,vth_p_par,vth_p_perp
1980-09-25 01:32:30,-1,nan,nan,nan,nan,1,3,nan,nan,1699,0.93830913,-2.3930492,98.016739,93.118301,nan,398.557,-1.93727,-3.88909,nan,nan
1980-09-25 01:37:54,1,2.3,-2.3,3.53333,0.188562,1,1,58518.6,65303.8,1699,0.9382956,-2.3933659,97.965225,93.117569,4.3303,396.861,-2.60551,2.78909,31.0817,32.8343
1980-09-25 01:43:18,1,1.3,-3.33333,1.33333,0.176383,1,1,110853.0,50080.0,1699,0.93827933,-2.3937464,97.913559,93.116684,4.34233,402.171,-1.5785,6.41321,42.7791,28.7535
1980-09-25 01:45:43,1,1.45,-3.475,1.275,0.310242,1,1,54584.0,43405.9,1699,0.93827397,-2.3938732,97.893738,93.116394,4.18589,402.727,0.69844,10.4626,30.0186,26.769
1980-09-25 01:51:07,1,1.05,-3.725,1.925,0.318198,1,1,46429.3,43294.5,1699,0.93825769,-2.3942528,97.842072,93.115509,3.93768,403.588,8.66552,6.60134,27.6856,26.7346
1980-09-25 01:56:31,1,0.4,-4.0,2.4,0.4,1,1,51489.4,30457.2,1699,0.93824416,-2.3945704,97.790558,93.114777,4.05703,402.059,4.00027,5.04758,29.1553,22.4235
1980-09-25 02:01:55,1,1.53333,-3.7,3.4,0.298142,1,1,45561.6,46502.9,1699,0.93823063,-2.394887,97.74295,93.114044,3.96541,394.044,8.95819,-1.50199,27.4257,27.7075
1980-09-25 02:07:19,1,2.4,-2.6,4.3,0.173205,1,1,43110.4,58017.2,1699,0.93821436,-2.3952675,97.691284,93.113159,3.94359,397.158,-1.76823,-3.36525,26.6777,30.9483
1980-09-25 02:12:43,1,2.45,-2.7,4.3,0.259808,1,1,42143.3,56650.8,1699,0.93820083,-2.3955841,97.639771,93.112427,3.53325,395.477,-3.2916,-2.9832,26.3768,30.5816
1980-09-25 02:18:07,1,2.175,-3.1,4.3,0.248747,1,1,60124.0,53583.1,1699,0.93818456,-2.3959646,97.592026,93.111557,4.05057,397.807,-0.668218,-2.46534,31.5052,29.7421
1980-09-25 02:23:31,1,0.4,-3.4,4.1,0.270801,1,1,88388.0,59869.9,1699,0.93817097,-2.3962812,97.540512,93.110825,4.40705,400.795,-8.94377,-4.92404,38.1992,31.4385
1980-09-25 02:28:55,1,0.85,-3.1,4.5,0.206155,1,1,56281.2,63421.7,1699,0.93815744,-2.3965979,97.488998,93.110092,4.00502,402.29,0.314241,-4.21256,30.4817,32.3577
1980-09-25 02:34:19,1,0.575,-2.65,5.6,0.37333,1,1,102291.0,60887.0,1699,0.93814117,-2.3969784,97.441238,93.109207,4.09431,400.11,-7.39098,-9.08688,41.0938,31.7044
1980-09-25 02:39:43,1,-0.875,-3.45,2.6,0.499375,1,1,52602.2,41471.2,1699,0.93812764,-2.397295,97.389725,93.108475,4.51816,409.916,0.0810677,5.77202,29.4686,26.1656
1980-09-25 02:45:07,1,-0.1,-3.7,2.3,0.3,1,1,89685.5,50927.8,1699,0.93811136,-2.3976755,97.338074,93.107605,5.10432,406.791,-2.88517,3.88418,38.4786,28.9958
1980-09-25 02:50:31,1,-0.166667,-3.23333,5.0,0.290593,1,1,75962.0,43851.9,1699,0.93809777,-2.3979921,97.290466,93.106873,4.30852,403.485,-1.44647,-0.445943,35.4125,26.9062
1980-09-25 02:55:55,1,-0.4,-3.03333,5.23333,0.176383,1,1,120362.0,52722.4,1699,0.93808424,-2.3983088,97.238953,93.10614,4.4641,401.7,-7.27745,-10.5136,44.5761,29.5023
1980-09-25 03:01:19,1,-1.4,-2.6,5.5,0.282843,1,1,33565.2,35829.1,1699,0.93806797,-2.3986893,97.187286,93.105255,4.03654,409.543,-2.16983,-14.4809,23.5398,24.3207
1980-09-25 03:06:43,1,-1.35,-1.975,5.9,0.290474,1,1,92280.2,55414.7,1699,0.93805438,-2.3990059,97.139679,93.104523,4.32825,407.377,-4.03499,-10.5564,39.0312,30.2462
1980-09-25 03:12:07,1,-1.2,-2.275,5.6,0.389711,1,1,108913.0,59184.5,1699,0.93803811,-2.3993864,97.088013,93.103638,4.84009,405.221,-1.97639,-8.43837,42.4031,31.2581
1980-09-25 03:17:31,1,-0.125,-3.25,5.175,0.285044,1,1,68356.4,57593.2,1699,0.93802452,-2.399703,97.036499,93.102905,4.39488,400.393,-3.6051,-10.7674,33.5929,30.835
1980-09-25 03:22:55,1,-0.2,-2.9,5.3,0.0,1,1,79327.9,53863.5,1699,0.93801093,-2.4000206,96.988892,93.102173,4.49307,401.439,-1.15071,-7.02757,36.1885,29.8198
1980-09-25 03:28:19,1,-0.925,-2.225,5.6,0.136931,1,1,95323.1,52154.6,1699,0.93799466,-2.4004011,96.937241,93.101303,4.30923,399.804,-5.46734,-8.1717,39.6695,29.343
1980-09-25 03:33:43,1,-0.975,-1.45,5.875,0.401559,1,1,72334.3,38748.4,1699,0.93798107,-2.4007177,96.885727,93.100571,4.5556,401.443,-3.32885,-13.9075,34.5565,25.2921
1980-09-25 03:39:07,1,-1.55,-0.8,5.2,0.259808,1,1,86765.6,52294.0,1699,0.9379648,-2.4010983,96.837967,93.099686,4.73851,404.221,-7.8638,-11.6681,37.847,29.3822
1980-09-25 03:44:31,1,-0.925,-1.3,4.4,0.238485,1,1,100895.0,57351.0,1699,0.93795121,-2.4014149,96.786453,93.098953,4.93081,400.778,0.980526,-6.72697,40.8124,30.7701
1980-09-25 04:04:18,1,3.55714,-1.32857,2.81429,0.329502,1,1,48233.4,51961.7,1699,0.93789691,-2.4026823,96.59993,93.096024,3.74825,390.596,-9.31663,7.38285,28.2184,29.2887
1980-09-25 04:04:46,1,3.7,-1.34286,2.87143,0.314286,1,1,37266.3,50436.2,1699,0.93789691,-2.4026823,96.596024,93.096024,3.43531,382.536,-11.1379,6.24674,24.8037,28.8555
1980-09-25 04:06:07,1,3.51429,-1.4,2.95714,0.648704,1,1,61548.1,62506.9,1699,0.93789148,-2.4028091,96.584015,93.095734,4.09746,382.752,-7.79462,12.9031,31.8761,32.1234
1980-09-25 04:07:28,1,2.3,-2.07143,4.14286,0.383858,1,1,54369.2,48859.0,1699,0.93788874,-2.402873,96.572144,93.095581,3.95075,385.243,-4.68125,-3.01192,29.9595,28.4008
1980-09-25 04:08:49,1,2.7375,-1.8125,3.75,0.619223,1,1,57268.1,61817.0,1699,0.937886,-2.402936,96.560287,93.095444,3.94761,385.143,-4.95325,-3.22939,30.7478,31.9457
1980-09-25 04:10:10,1,2.85714,-2.04286,3.74286,0.309707,1,1,67532.7,53464.6,1699,0.93788058,-2.4030628,96.548279,93.095154,4.18305,390.966,-2.0489,-2.37431,33.3899,29.7092
1980-09-25 04:11:31,1,2.94286,-1.95714,3.51429,0.257143,1,1,46437.7,55418.0,1699,0.93787789,-2.4031267,96.536407,93.095001,3.80888,389.76,-3.64183,-3.10977,27.6881,30.2471
1980-09-25 04:12:52,1,2.6875,-1.725,4.0,0.30898,1,1,81740.0,65440.1,1699,0.93787515,-2.4031897,96.520645,93.094864,4.39145,391.925,-8.674,-6.75329,36.7346,32.8685
1980-09-25 04:14:13,1,2.2375,-2.2,3.3,0.690901,1,1,57862.2,56705.8,1699,0.93786973,-2.4033165,96.508621,93.094559,4.11331,389.351,-7.337,-3.50648,30.9069,30.5965
1980-09-25 04:15:34,1,2.75,-1.8375,3.4,0.273576,1,1,51701.3,41816.8,1699,0.93786699,-2.4033804,96.496765,93.094421,3.55711,384.42,-4.11828,-1.49387,29.2152,26.2744
1980-09-25 04:16:55,1,3.2,-1.4,3.77143,0.218529,1,1,57210.1,59670.2,1699,0.93786424,-2.4034433,96.484894,93.094269,4.09887,388.018,-6.08829,-0.966013,30.7322,31.3861
1980-09-25 04:18:16,1,2.94286,-0.8,3.85714,0.301019,1,1,57623.2,49608.3,1699,0.93785882,-2.4035702,96.472885,93.093979,3.8535,385.05,-8.00032,-5.44423,30.843,28.6177
1980-09-25 04:19:37,1,2.34286,-0.485714,4.08571,0.357428,1,1,98583.5,67517.3,1699,0.93785614,-2.4036341,96.461014,93.093826,4.59426,389.787,-8.75161,-4.37888,40.3422,33.3861
1980-09-25 04:20:58,1,1.97143,0.0,4.47143,0.313636,1,1,64791.3,69478.2,1699,0.9378534,-2.403697,96.445251,93.093689,3.88406,389.117,-13.4365,-7.8702,32.7052,33.8674
1980-09-25 04:22:19,1,1.95,-0.075,4.55,0.263391,1,1,71899.6,72820.1,1699,0.93784797,-2.4038239,96.433243,93.093399,4.53812,390.178,-13.0632,-8.50823,34.4525,34.6724
1980-09-25 04:23:40,1,1.8125,0.15,4.5125,0.254337,1,1,45056.6,64575.5,1699,0.93784523,-2.4038877,96.421371,93.093246,4.01605,388.795,-12.6829,-11.8967,27.2732,32.6506
1980-09-25 04:25:01,1,1.5125,-0.05,4.8,0.297647,1,1,79663.5,65044.9,1699,0.93783981,-2.4040146,96.409363,93.092957,4.29239,391.0,-12.2992,-8.07616,36.265,32.7691
1980-09-25 05:37:45,-1,nan,nan,nan,nan,1,3,nan,nan,1699,0.93764377,-2.4085789,95.730865,93.082428,nan,378.445,-3.34395,5.1275,nan,nan
1980-09-25 05:39:06,1,3.74286,-1.51429,2.92857,0.256348,1,1,40585.9,40292.7,1699,0.93763834,-2.4087057,95.718857,93.082138,3.94707,379.555,-1.73324,8.03513,25.8848,25.7912
1980-09-25 05:40:27,1,3.82857,-1.52857,3.1,0.188442,1,1,35608.1,45933.9,1699,0.9376356,-2.4087696,95.706985,93.081985,3.57013,374.781,-2.45225,5.60716,24.2456,27.5375
1980-09-25 05:41:48,1,3.68571,-1.65714,3.27143,0.282843,1,1,38359.1,39867.8,1699,0.93763286,-2.4088326,95.695129,93.081848,3.76188,379.187,-2.14062,3.89612,25.1647,25.6548
1980-09-25 05:43:10,1,3.77143,-1.88571,3.38571,0.336246,1,1,39979.0,50309.4,1699,0.93762743,-2.4089594,95.679199,93.081543,4.18899,377.872,-2.58133,4.35004,25.6906,28.8192
1980-09-25 05:44:31,1,3.18571,-1.94286,3.08571,0.237332,1,1,38751.7,37785.2,1699,0.93762469,-2.4090233,95.667343,93.081406,3.72037,380.072,-0.609384,3.3503,25.2932,24.9758
1980-09-25 05:45:52,1,3.32857,-1.9,3.08571,0.214761,1,1,40574.4,54894.6,1699,0.93762195,-2.4090862,95.655472,93.081253,4.36768,382.228,1.13957,4.70042,25.8812,30.1039
1980-09-25 05:47:13,1,3.45714,-2.17143,3.15714,0.274791,1,1,41517.6,34181.1,1699,0.93761653,-2.4092131,95.643463,93.080963,3.75236,380.323,0.641132,6.31472,26.1803,23.7548
1980-09-25 05:48:34,1,3.22857,-2.2,3.01429,0.316872,1,1,39388.2,54432.8,1699,0.93761379,-2.409277,95.631607,93.080826,4.01444,377.661,2.67526,4.83385,25.5,29.977
1980-09-25 05:49:55,1,3.21429,-2.25714,2.97143,0.320713,1,1,40171.5,45865.3,1699,0.93761104,-2.4093399,95.619736,93.080673,3.96857,381.496,1.10637,2.30762,25.7523,27.5169
1980-09-25 05:51:16,1,2.92857,-2.28571,2.61429,0.285714,1,1,50320.4,63669.2,1699,0.93760562,-2.4094667,95.603821,93.080383,4.30487,381.156,4.82156,4.8356,28.8224,32.4207
1980-09-25 05:52:37,1,3.04286,-2.44286,2.11429,0.27848,1,1,38206.5,31663.7,1699,0.93760288,-2.4095306,95.591949,93.080231,3.83562,381.876,0.276961,12.6687,25.1146,22.8633
1980-09-25 05:53:57,1,2.9,-2.52857,2.02857,0.247436,1,1,44392.6,57703.6,1699,0.9376002,-2.4095936,95.580093,93.080093,4.25196,384.344,5.22506,9.50388,27.0716,30.8645
1980-09-25 05:55:18,1,2.91429,-2.48571,1.91429,0.268784,1,1,40659.9,35499.3,1699,0.93759471,-2.4097204,95.568069,93.079788,3.88827,383.125,0.298126,13.3867,25.9084,24.2085
1980-09-25 05:59:21,1,3.3,-2.24286,2.62857,0.309707,1,1,50785.7,61426.6,1699,0.9375838,-2.4099741,95.528427,93.079208,4.3532,382.609,3.94643,8.41183,28.9553,31.8446
1980-09-25 05:59:22,1,3.3,-2.24286,2.62857,0.309707,1,1,48061.7,57290.1,1699,0.93817967,-2.6918859,95.334137,92.884918,3.98509,381.438,2.7069,8.84599,28.1681,30.7537
1980-09-25 06:00:42,1,3.38571,-2.32857,2.75714,0.256348,1,1,42130.8,37840.5,1699,0.93758112,-2.410038,95.516571,93.079071,3.68418,383.204,0.990137,10.3678,26.3729,24.994
1980-09-25 06:00:43,1,3.38571,-2.32857,2.75714,0.256348,1,1,38191.8,42946.8,1699,0.93758112,-2.410038,95.516571,93.079071,3.68316,378.56,2.96881,4.96497,25.1098,26.6271
1980-09-25 06:02:04,1,3.38571,-2.4,2.52857,0.298294,1,1,40120.3,52633.0,1699,0.93757564,-2.4101639,95.504547,93.078766,3.85716,379.213,3.76121,5.39601,25.7359,29.4772
1980-09-25 06:03:25,1,3.38571,-2.27143,2.7,0.142857,1,1,41004.2,35046.4,1699,0.9375729,-2.4102278,95.492691,93.078629,3.49771,379.857,1.05937,6.56033,26.0179,24.0536
1980-09-25 06:04:46,1,3.31429,-2.08571,2.01429,0.441704,1,1,48210.8,53943.6,1699,0.93757015,-2.4102907,95.48082,93.078476,4.32083,379.837,1.5718,6.44375,28.2118,29.842
1980-09-25 06:06:07,1,3.42857,-2.08571,1.15714,0.316228,1,1,36709.6,32580.3,1699,0.93756473,-2.4104176,95.468811,93.078186,3.75142,383.506,-1.78634,17.1417,24.6177,23.1918
1980-09-25 06:07:28,1,3.35714,-2.2,1.1,0.249898,1,1,49191.4,50910.7,1699,0.93756199,-2.4104815,95.453049,93.078049,3.82771,381.196,1.43189,13.6541,28.4972,28.991
1980-09-25 06:08:49,1,3.5,-1.91429,0.928571,0.312332,1,1,40094.6,30849.3,1699,0.93755925,-2.4105444,95.441177,93.077896,3.69881,383.304,0.637916,16.7653,25.7277,22.5674
1980-09-25 06:10:10,1,3.28571,-2.17143,0.757143,0.261861,1,1,45010.6,52843.3,1699,0.93755382,-2.4106712,95.429169,93.077606,4.0824,383.966,3.08626,16.2373,27.2593,29.5361
1980-09-25 06:11:31,1,2.84286,-2.08571,0.314286,0.271052,1,1,42972.3,43056.4,1699,0.93755108,-2.4107351,95.417297,93.077454,3.89486,386.247,0.218947,21.4426,26.635,26.661
1980-09-25 06:12:52,1,2.725,-2.45,0.525,0.329773,1,1,45912.1,48447.8,1699,0.93754834,-2.4107981,95.405441,93.077316,3.94776,387.463,5.76616,15.9889,27.531,28.281
1980-09-25 06:14:13,1,2.7125,-2.6,0.9375,0.361853,1,1,45819.7,37404.1,1699,0.93754286,-2.4109249,95.393433,93.077026,3.72443,385.661,0.310973,17.8191,27.5033,24.8495
1980-09-25 06:15:34,1,2.3375,-2.875,0.85,0.227418,1,1,47489.3,49146.8,1699,0.93754017,-2.4109888,95.377655,93.076874,4.02615,389.879,9.79115,12.7919,27.9999,28.4843
1980-09-25 06:16:55,1,2.85,-2.625,1.525,0.475657,1,1,46972.3,40030.8,1699,0.93753743,-2.4110518,95.365784,93.076721,3.9555,385.334,2.15421,14.1133,27.847,25.7072
1980-09-25 06:18:16,1,3.3,-2.45714,2.28571,0.390186,1,1,41666.1,53769.4,1699,0.93753195,-2.4111786,95.353775,93.076431,3.95661,380.777,5.73317,6.99258,26.227,29.7938
1980-09-25 06:19:37,1,3.04286,-2.41429,2.82857,0.417475,1,1,34740.2,36370.8,1699,0.93752921,-2.4112425,95.341919,93.076294,3.21229,380.117,2.61919,-2.56604,23.9483,24.5039
1980-09-25 06:20:58,1,3.21429,-2.32857,2.8,0.245781,1,1,52864.1,56583.5,1699,0.93752652,-2.4113054,95.330048,93.076141,3.84332,379.018,1.31125,3.80281,29.5419,30.5635
1980-09-25 06:22:19,-1,nan,nan,nan,nan,1,3,nan,nan,1699,0.93752104,-2.4114323,95.318039,93.075851,nan,378.91,1.65238,4.06912,nan,nan
1980-09-25 06:23:40,-1,nan,nan,nan,nan,1,3,nan,nan,1699,0.9375183,-2.4114962,95.302277,93.075714,nan,375.513,-0.156154,11.523,nan,nan
1980-09-25 06:25:01,-1,nan,nan,nan,nan,1,3,nan,nan,1699,0.93751287,-2.411623,95.290253,93.075409,nan,377.694,-1.07568,12.0791,nan,nan
1980-09-25 06:26:22,-1,nan,nan,nan,nan,1,3,nan,nan,1699,0.93751013,-2.4116859,95.278397,93.075272,nan,377.575,0.104949,12.9036,nan,nan
1980-09-25 06:27:43,-1,nan,nan,nan,nan,1,3,nan,nan,1699,0.93750739,-2.4117498,95.266525,93.075119,nan,382.678,3.52669,4.91363,nan,nan
1980-09-25 06:29:04,-1,nan,nan,nan,nan,1,3,nan,nan,1699,0.93750191,-2.4118767,95.254517,93.074829,nan,375.972,-9.37903,16.8307,nan,nan
1980-09-25 06:30:25,-1,nan,nan,nan,nan,1,3,nan,nan,1699,0.93749923,-2.4119396,95.242661,93.074692,nan,379.888,-10.1998,12.8619,nan,nan
1980-09-25 06:31:46,-1,nan,nan,nan,nan,1,3,nan,nan,1699,0.93749648,-2.4120035,95.226883,93.074539,nan,379.279,-8.76643,14.548,nan,nan
1980-09-25 06:33:07,1,3.68571,-0.585714,1.07143,0.356857,1,1,40392.1,54690.2,1699,0.937491,-2.4121294,95.214874,93.074249,3.6896,377.656,-8.26177,15.2611,25.823,30.0478
1980-09-25 06:34:28,1,3.78571,-1.01429,1.52857,0.432836,1,1,52832.7,56419.5,1699,0.93748826,-2.4121933,95.203003,93.074097,4.00901,375.356,-5.86622,15.4103,29.5331,30.5191
1980-09-25 06:35:49,1,3.6,-1.21429,2.05714,0.386507,1,1,38395.9,44631.1,1699,0.93748558,-2.4122562,95.191147,93.073959,3.79377,376.765,-4.97401,13.6431,25.1768,27.1442
1980-09-25 06:37:10,1,3.52857,-1.41429,1.72857,0.266497,1,1,55108.3,50734.2,1699,0.93748009,-2.4123831,95.179138,93.073669,3.92099,373.559,-6.12471,14.5211,30.1624,28.9407
1980-09-25 06:38:31,1,3.54286,-1.41429,1.27143,0.35051,1,1,36776.6,46077.9,1699,0.93747735,-2.412447,95.167267,93.073517,3.53053,376.099,-3.50618,17.4197,24.6402,27.5806
1980-09-25 06:39:52,1,3.65714,-1.32857,1.5,0.126168,1,1,57765.5,51667.3,1699,0.93747461,-2.4125099,95.151489,93.073364,3.78732,372.79,-5.57641,12.0184,30.8811,29.2056
1980-09-25 06:41:13,1,3.52857,-1.41429,1.5,0.178429,1,1,38491.7,39207.8,1699,0.93746918,-2.4126368,95.139481,93.073074,3.57532,377.702,-3.24262,17.7674,25.2082,25.4416
1980-09-25 06:42:34,1,3.65714,-1.32857,1.55714,0.188442,1,1,55553.3,50771.2,1699,0.93746644,-2.4127007,95.127625,93.072937,3.95685,374.823,-7.11075,15.3288,30.284,28.9512
1980-09-25 06:43:55,1,3.64286,-1.57143,2.01429,0.329502,1,1,36797.7,32538.5,1699,0.9374637,-2.4127636,95.115753,93.072784,3.82104,378.849,-2.1466,12.9571,24.6473,23.177
1980-09-25 06:45:16,1,3.68571,-1.38571,1.9,0.198977,1,1,54596.5,47200.0,1699,0.93745828,-2.4128904,95.103745,93.072495,4.00311,372.31,-4.93228,11.5294,30.0221,27.9144
1980-09-25 06:46:37,1,3.75714,-1.27143,2.01429,0.239046,1,1,41210.3,41095.1,1699,0.93745553,-2.4129543,95.087967,93.072342,3.68128,373.237,-3.65037,10.1143,26.0832,26.0467
1980-09-25 06:47:58,1,3.94286,-1.38571,1.78571,0.349343,1,1,41271.6,43697.0,1699,0.93745279,-2.4130173,95.076111,93.072205,3.42172,371.254,-4.28509,13.6828,26.1026,26.8586
1980-09-25 06:49:19,1,3.52857,-1.8,1.38571,0.186263,1,1,37132.6,30850.3,1699,0.93744731,-2.4131441,95.064102,93.071915,3.74601,379.497,-0.249435,17.6489,24.7591,22.5677
1980-09-25 06:50:40,1,3.27143,-1.37143,0.671429,0.812655,1,1,50577.8,48655.3,1699,0.93744463,-2.413208,95.052231,93.071762,3.92568,376.314,-0.914983,21.9066,28.896,28.3415
1980-09-25 06:52:01,1,3.7,-1.81429,1.9,0.247436,1,1,28999.1,36407.5,1699,0.93743914,-2.4133348,95.040222,93.071472,3.68243,375.222,0.852748,16.888,21.8802,24.5162
1980-09-25 06:53:22,1,3.74286,-1.61429,2.07143,0.320713,1,1,40409.4,43428.6,1699,0.9374364,-2.4133978,95.028366,93.071335,3.58967,371.095,-0.741989,12.627,25.8285,26.776
1980-09-25 06:54:43,1,3.68571,-1.6,2.3,0.335638,1,1,31605.2,33105.2,1699,0.93743366,-2.4134617,95.012589,93.071182,3.72709,374.796,-0.889373,12.7345,22.8421,23.3779
1980-09-25 06:56:04,1,3.57143,-1.74286,2.87143,0.263416,1,1,32096.9,47243.7,1699,0.93742824,-2.4135885,95.00058,93.070892,3.49448,368.691,-0.0985826,9.86672,23.0191,27.9274
1980-09-25 06:57:25,1,3.87143,-1.68571,2.3,0.221313,1,1,37526.4,34265.6,1699,0.93742549,-2.4136515,94.988708,93.07074,3.72126,375.402,0.489313,9.25351,24.8901,23.7841
1980-09-25 06:58:46,1,4.0125,-1.6125,2.05,0.259206,1,1,28436.8,34573.9,1699,0.93742275,-2.4137154,94.976852,93.070602,3.07071,368.689,1.54048,14.9172,21.667,23.8909
1980-09-25 07:00:07,1,4.0875,-1.225,2.15,0.304908,1,1,35672.1,39003.8,1699,0.93741733,-2.4138422,94.964844,93.070313,3.48286,374.109,-3.05655,11.6876,24.2673,25.3753
1980-09-25 07:01:28,1,3.52857,-2.11429,2.47143,0.328882,1,1,27041.2,30128.6,1699,0.93741459,-2.4139051,94.952972,93.07016,3.24006,369.503,3.88992,7.7471,21.1286,22.3022
1980-09-25 07:02:49,1,3.6,-1.94286,2.35714,0.353409,1,1,33924.1,37815.6,1699,0.93741184,-2.413969,94.937195,93.070007,3.23655,373.338,-0.598698,13.0052,23.6653,24.9858
1980-09-25 07:04:10,1,2.81429,-2.68571,3.25714,0.837879,1,1,20335.5,41570.3,1699,0.93740636,-2.4140959,94.925186,93.069717,3.85829,375.656,7.35758,5.97918,18.3225,26.1969
1980-09-25 07:05:31,1,2.9,-2.5,2.54286,0.255551,1,1,40127.5,21833.8,1699,0.93740362,-2.4141588,94.91333,93.06958,3.82638,381.782,-0.244685,11.7003,25.7382,18.9855
1980-09-25 07:06:52,1,3.44286,-2.11429,3.1,0.339267,1,1,25131.6,33393.0,1699,0.93740088,-2.4142227,94.901459,93.069427,2.81554,370.755,5.21545,3.21001,20.3689,23.4793
1980-09-25 07:10:55,1,4.15714,-1.62857,2.41429,0.29761,1,1,34757.0,37524.3,1699,0.93738997,-2.4144764,94.861816,93.068848,3.5963,372.381,-1.11372,8.70829,23.9541,24.8894
1980-09-25 07:12:16,1,4.1,-1.28571,2.3,0.235606,1,1,28590.2,36846.7,1699,0.93738449,-2.4146032,94.849808,93.068558,3.12303,366.163,-8.14926,13.5354,21.7253,24.6636
1980-09-25 07:13:37,1,4.1,-1.67143,2.07143,0.318158,1,1,35841.2,42082.1,1699,0.93738174,-2.4146662,94.837936,93.068405,3.56758,371.244,-1.51725,13.2251,24.3248,26.3576
1980-09-25 07:14:58,1,3.85714,-1.9,2.18571,0.382793,1,1,29964.2,38581.2,1699,0.937379,-2.4147301,94.82608,93.068268,3.44374,368.576,0.0230951,14.6641,22.2412,25.2375
1980-09-25 07:16:19,1,3.98571,-1.35714,2.01429,0.341067,1,1,39640.3,40878.3,1699,0.93737352,-2.4148569,94.814072,93.067978,3.78795,373.238,-4.58163,13.0507,25.5815,25.9779
1980-09-25 07:17:40,1,3.95714,-1.65714,2.24286,0.23035,1,1,33653.4,39389.5,1699,0.93737084,-2.4149199,94.8022,93.067825,3.57533,369.802,-2.35349,9.40034,23.5707,25.5005
1980-09-25 07:19:01,1,4.15714,-1.51429,2.24286,0.178429,1,1,41399.5,35705.7,1699,0.93736535,-2.4150467,94.786285,93.067535,3.54002,371.797,-1.0587,8.43243,26.143,24.2788
1980-09-25 07:20:22,1,4.02857,-1.6,1.95714,0.224063,1,1,29508.2,37089.2,1699,0.93736261,-2.4151106,94.774429,93.067398,3.42252,370.978,-2.28538,13.2882,22.0714,24.7447
1980-09-25 07:21:43,1,4.01429,-1.55714,1.72857,0.316228,1,1,44531.8,39795.7,1699,0.93735987,-2.4151735,94.762558,93.067245,3.88989,374.817,-2.54833,12.9692,27.114,25.6316
1980-09-25 07:23:04,1,4.15714,-1.45714,1.9,0.286428,1,1,30839.6,40914.9,1699,0.93735439,-2.4153004,94.750549,93.066956,3.43459,369.351,-3.47349,11.3477,22.5638,25.9895
1980-09-25 07:24:25,1,3.94286,-1.52857,1.84286,0.30439,1,1,33288.4,36214.2,1699,0.93735164,-2.4153643,94.738678,93.066803,3.41565,373.875,0.380385,15.4095,23.4425,24.451
1980-09-25 07:25:46,1,3.68571,-1.92857,1.95714,0.302372,1,1,37587.5,43400.1,1699,0.9373489,-2.4154272,94.726822,93.066666,3.71975,373.196,2.69229,9.07988,24.9103,26.7672
1980-09-25 07:27:07,1,3.52857,-2.14286,1.9,0.285714,1,1,33567.6,30191.1,1699,0.93734348,-2.415554,94.710907,93.066376,3.90419,378.629,1.08782,12.5722,23.5406,22.3253
1980-09-25 07:28:28,1,3.67143,-2.14286,1.78571,0.239046,1,1,31484.5,44379.8,1699,0.93734074,-2.4156179,94.699036,93.066223,3.60535,374.631,4.38428,10.0817,22.7985,27.0677
1980-09-25 07:29:49,1,2.7125,-3.175,2.7125,0.379556,1,1,50990.5,27613.5,1699,0.93733799,-2.4156809,94.68718,93.066086,3.64521,380.843,3.06706,5.94775,29.0137,21.351
1980-09-25 07:32:31,1,3.25,-2.575,2.4875,0.378112,1,1,43639.7,28858.4,1699,0.93732977,-2.4158716,94.6633,93.065643,3.35062,378.942,0.209206,8.0999,26.841,21.827
1980-09-25 07:33:52,1,3.75714,-2.21429,2.35714,0.221313,1,1,31231.0,43267.2,1699,0.93732703,-2.4159346,94.651428,93.065491,3.56775,373.463,3.90027,8.45562,22.7065,26.7262
1980-09-25 07:35:13,1,3.5,-2.57143,2.18571,0.293466,1,1,34531.5,29217.0,1699,0.9373216,-2.4160614,94.635513,93.065201,3.61617,377.344,1.38223,13.1197,23.8762,21.9622
1980-09-25 07:36:34,1,3.32857,-2.38571,2.24286,0.30706,1,1,31405.7,42201.4,1699,0.93731886,-2.4161253,94.623657,93.065063,3.4884,374.377,6.44928,9.57741,22.7699,26.395
1980-09-25 07:37:55,1,3.5,-2.31429,2.35714,0.284282,1,1,37516.9,31985.0,1699,0.93731612,-2.4161882,94.611786,93.064911,3.7317,378.178,0.970427,13.9263,24.8869,22.979
1980-09-25 07:39:16,1,3.84286,-2.08571,2.47143,0.358569,1,1,32218.1,40043.7,1699,0.93731064,-2.4163151,94.599777,93.064621,3.5065,371.758,2.4197,4.31862,23.0626,25.7113
1980-09-25 07:40:37,1,3.91429,-1.7,2.12857,0.321349,1,1,37350.8,35784.4,1699,0.93730789,-2.416379,94.587921,93.064484,3.60154,375.464,0.555988,13.7266,24.8318,24.3055
1980-09-25 07:41:58,1,4.01429,-1.21429,1.61429,0.312984,1,1,35456.3,48838.8,1699,0.93730515,-2.4164419,94.57605,93.064331,3.99644,371.254,-2.54155,13.4458,24.1938,28.3949
1980-09-25 07:43:19,1,4.38571,-0.385714,1.5,0.430472,1,1,36445.8,45507.0,1699,0.93729973,-2.4165688,94.560135,93.064041,3.86374,373.932,-10.3879,18.544,24.5291,27.4092
1980-09-25 07:44:40,1,4.17143,-0.585714,1.5,0.457143,1,1,26473.6,40614.7,1699,0.93729699,-2.4166327,94.548264,93.063889,3.56603,369.564,-7.16427,15.6741,20.9057,25.894
1980-09-25 07:46:01,1,4.38571,-0.5,1.38571,0.486554,1,1,39452.0,49807.8,1699,0.9372915,-2.4167595,94.536255,93.063599,3.71504,373.427,-8.9096,15.7181,25.5207,28.6752
1980-09-25 07:47:22,1,4.51429,-0.685714,1.67143,0.473804,1,1,37468.8,38366.5,1699,0.93728876,-2.4168224,94.524399,93.063461,3.31738,368.029,-5.60712,13.4141,24.871,25.1671
1980-09-25 07:48:43,1,4.22857,-0.314286,1.15714,0.333809,1,1,44961.0,49351.5,1699,0.93728602,-2.4168863,94.512527,93.063309,4.05624,373.698,-8.70869,18.7264,27.2443,28.5436
1980-09-25 07:50:04,1,3.88571,-1.54286,1.84286,0.342857,1,1,30099.3,35426.9,1699,0.93728054,-2.4170132,94.500519,93.063019,3.19951,367.471,-1.67904,15.326,22.2913,24.1838
1980-09-25 07:51:25,1,4.02857,-1.6,1.95714,0.224063,1,1,43901.4,41191.5,1699,0.93727779,-2.4170761,94.484756,93.062881,3.61824,373.624,-3.73892,12.7642,26.9214,26.0772
1980-09-25 07:52:46,1,3.81429,-1.58571,2.3,0.198977,1,1,26855.4,40939.5,1699,0.93727511,-2.41714,94.472885,93.062729,3.32334,367.452,-3.30608,12.5049,21.0559,25.9974
1980-09-25 07:54:07,1,4.02857,-1.58571,2.07143,0.261081,1,1,42937.1,40039.2,1699,0.93726963,-2.4172668,94.460876,93.062439,3.70026,373.699,-3.30599,15.7919,26.6241,25.7099
1980-09-25 07:55:28,1,3.98571,-1.62857,1.95714,0.213809,1,1,31916.5,41029.2,1699,0.93726689,-2.4173298,94.449005,93.062286,3.30472,369.31,-2.74823,13.4903,22.9544,26.0258
1980-09-25 07:56:49,1,3.82857,-1.67143,1.84286,0.234738,1,1,42398.1,40518.8,1699,0.93726414,-2.4173937,94.437149,93.062149,3.72917,374.626,-2.18763,14.0821,26.4564,25.8634